SCP
0 0 0 0 0 0 0 0 0 0 0 0 0 0 0 0 0 0 0 0 0 0 0 0 0 0 0 0 0 0 0 0 0 0 0 0 0 0 0 0 0 0 0
0 0 0 0 0 0 0 0 0 0 0 0 0 0 0 0 0 0 0 0 0 0 0 0 0 0 0 0 0 0 0 0 0 0 0 0 0 0 0 0 0 0 0
0 0 0 0 0 0 0 0 0 0 0 0 0 0 0 0 0 0 0 0 0 0 0 0 0 0 0 0 0 0 0 0 0 0 0 0 0 0 0 0 0 0 0
0 0 0 0 0 0 0 0 0 0 0 0 0 0 0 0 0 0 0 0 0 0 0 0 0 0 0 0 0 0 0 0 0 0 0 0 0 0 0 0 0 0 0
0 0 0 0 0 0 0 0 0 0 0 0 0 0 0 0 0 0 0 0 0 0 0 0 0 0 0 0 0 0 0 0 0 0 0 0 0 0 0 0 0 0 0
0 0 0 0 0 0 0 0 0 0 0 0 0 0 0 0 0 0 0 0 0 0 0 0 0 0 0 0 0 0 0 0 0 0 0 0 0 0 0 0 0 0 0
0 0 0 0 0 0 0 0 0 0 0 0 0 0 0 0 0 0 0 0 0 0 0 0 0 0 0 0 0 0 0 0 0 0 0 0 0 0 0 0 0 0 0
0 0 0 0 0 0 0 0 0 0 0 0 0 0 0 0 0 0 0 0 0 0 0 0 0 0 0 0 0 0 0 0 0 0 0 0 0 0 0 0 0 0 0
0 0 0 0 0 0 0 0 0 0 0 0 0 0 0 0 0 0 0 0 0 0 0 0 0 0 0 0 0 0 0 0 0 0 0 0 0 0 0 0 0 0 0
0 0 0 0 0 0 0 0 0 0 0 0 0 0 0 0 0 0 0 0 0 0 0 0 0 0 0 0 0 0 0 0 0 0 0 0 0 0 0 0 0 0 0
0 0 0 0 0 0 0 0 0 0 0 0 0 0 0 0 0 0 0 0 0 0 0 0 0 0 0 0 0 0 0 0 0 0 0 0 0 0 0 0 0 0 0
0 0 0 0 0 0 0 0 0 0 0 0 0 0 0 0 0 0 0 0 0 0 0 0 0 0 0 0 0 0 0 0 0 0 0 0 0 0 0 0 0 0 0
0 0 0 0 0 0 0 0 0 0 0 0 0 0 0 0 0 0 0 0 0 0 0 0 0 0 0 0 0 0 0 0 0 0 0 0 0 0 0 0 0 0 0
0 0 0 0 0 0 0 0 0 0 0 0 0 0 0 0 0 0 0 0 0 0 0 0 0 0 0 0 0 0 0 0 0 0 0 0 0 0 0 0 0 0 0
0 0 0 0 0 0 0 0 0 0 0 0 0 0 0 0 0 0 0 0 0 0 0 0 0 0 0 0 0 0 0 0 0 0 0 0 0 0 0 0 0 0 0
0 0 0 0 0 0 0 0 0 0 0 0 0 0 0 0 0 0 0 0 0 0 0 0 0 0 0 0 0 0 0 0 0 0 0 0 0 0 0 0 0 0 0
0 0 0 0 0 0 0 0 0 0 0 0 0 0 0 0 0 0 0 0 0 0 0 0 0 0 0 0 0 0 0 0 0 0 0 0 0 0 0 0 0 0 0
0 0 0 0 0 0 0 0 0 0 0 0 0 0 0 0 0 0 0 0 0 0 0 0 0 0 0 0 0 0 0 0 0 0 0 0 0 0 0 0 0 0 0
0 0 0 0 0 0 0 0 0 0 0 0 0 0 0 0 0 0 0 0 0 0 0 0 0 0 0 0 0 0 0 0 0 0 0 0 0 0 0 0 0 0 0
0 0 0 0 0 0 0 0 0 0 0 0 0 0 0 0 0 0 0 0 0 0 0 0 0 0 0 0 0 0 0 0 0 0 0 0 0 0 0 0 0 0 0
0 0 0 0 0 0 0 0 0 0 0 0 0 0 0 0 0 0 0 0 0 0 0 0 0 0 0 0 0 0 0 0 0 0 0 0 0 0 0 0 0 0 0
0 0 0 0 0 0 0 0 0 0 0 0 0 0 0 0 0 0 0 0 0 0 0 0 0 0 0 0 0 0 0 0 0 0 0 0 0 0 0 0 0 0 0
0 0 0 0 0 0 0 0 0 0 0 0 0 0 0 0 0 0 0 0 0 0 0 0 0 0 0 0 0 0 0 0 0 0 0 0 0 0 0 0 0 0 0
0 0 0 0 0 0 0 0 0 0 0 0 0 0 0 0 0 0 0 0 0 0 0 0 0 0 0 0 0 0 0 0 0 0 0 0 0 0 0 0 0 0 0
0 0 0 0 0 0 0 0 0 0 0 0 0 0 0 0 0 0 0 0 0 0 0 0 0 0 0 0 0 0 0 0 0 0 0 0 0 0 0 0 0 0 0
0 0 0 0 0 0 0 0 0 0 0 0 0 0 0 0 0 0 0 0 0 0 0 0 0 0 0 0 0 0 0 0 0 0 0 0 0 0 0 0 0 0 0
Wind_Speed
6 9 10 10 10 10 10 10 10 11 11 11 11 10 11 11 10 10 10 10 10 10 10 10 10 10 10 10 10 10 9 8 8 8 8 8 8 9 8 8 7 5 7
8 10 11 10 10 10 10 11 11 11 11 11 11 11 10 10 10 10 10 10 10 11 10 10 10 10 10 10 9 9 8 8 8 7 7 6 7 8 9 9 8 5 8
10 10 10 11 11 11 11 11 11 10 11 11 11 11 10 10 10 10 10 10 10 11 10 10 10 10 10 10 9 9 8 8 7 7 5 3 5 9 9 9 9 9 8
10 10 10 10 11 11 11 11 10 11 11 11 11 11 11 10 10 9 9 9 10 10 10 11 10 10 10 10 9 9 9 8 8 8 4 4 4 8 9 9 9 9 8
10 11 10 10 10 11 11 10 10 11 11 11 12 11 11 11 11 10 10 10 10 10 10 10 10 10 10 10 9 9 9 9 9 7 5 5 4 7 9 9 9 9 9
10 10 9 10 10 10 10 10 10 11 11 11 12 12 11 11 11 11 11 11 10 10 10 9 9 10 9 9 9 9 9 9 7 5 5 5 4 8 9 9 9 9 9
9 9 9 10 10 10 10 10 10 10 10 11 11 11 11 11 11 11 11 11 11 10 10 9 9 9 8 8 8 8 8 7 4 5 5 6 7 11 11 10 9 9 10
8 9 9 9 9 9 9 9 9 10 9 9 10 10 10 10 11 11 11 11 10 10 9 9 9 8 7 7 7 8 8 7 6 6 6 6 10 12 11 10 10 10 10
7 7 6 7 7 8 8 8 8 8 8 8 8 8 8 8 9 9 10 10 10 9 8 8 7 6 6 6 6 6 7 7 5 4 7 5 10 12 12 12 11 10 9
6 5 5 6 5 5 5 7 7 7 7 6 5 5 6 6 7 8 9 9 9 9 8 7 6 5 4 4 4 4 4 4 3 5 4 6 11 12 12 11 11 10 10
6 4 4 4 5 5 5 6 4 5 4 3 2 2 2 2 4 5 7 8 8 7 6 5 5 4 3 2 2 2 2 1 4 4 4 8 10 11 11 10 10 10 9
5 4 3 3 5 5 4 3 2 2 2 1 1 2 1 2 3 5 5 6 5 5 4 3 2 2 1 1 1 2 1 2 3 4 4 9 10 10 9 10 10 9 9
5 4 4 4 4 5 3 2 1 1 1 2 2 3 3 3 2 3 2 2 2 2 2 1 1 1 1 1 1 2 3 3 3 4 4 9 9 9 9 9 9 9 9
5 5 4 4 4 4 3 2 2 2 2 2 2 3 3 2 2 2 2 2 1 1 2 1 1 2 3 3 3 4 4 3 3 3 4 8 9 8 8 8 8 8 8
5 4 4 4 3 3 3 2 2 2 3 2 2 2 3 2 2 2 2 2 2 2 2 2 3 4 4 4 4 4 4 4 3 3 3 6 7 7 7 7 7 8 8
4 4 4 3 3 4 3 2 3 2 2 2 1 2 3 2 2 2 2 2 2 2 2 2 3 3 3 3 3 4 4 3 3 3 2 4 5 6 6 6 7 7 7
4 5 5 3 4 4 3 3 3 2 3 2 2 2 3 2 2 2 2 2 2 2 2 3 3 2 3 3 4 3 3 3 3 2 2 2 2 4 5 5 6 6 6
4 5 5 3 3 4 4 4 3 3 3 3 2 2 3 3 4 3 2 1 2 2 2 2 3 3 3 3 2 2 2 2 3 2 2 2 2 2 3 4 5 5 5
4 5 5 4 4 4 3 3 3 3 3 2 2 2 3 4 4 3 2 2 3 2 2 3 3 3 3 3 2 1 2 1 2 2 2 2 2 2 2 3 3 4 5
4 4 5 5 3 4 3 3 3 3 2 2 2 3 4 3 4 3 2 2 3 2 2 3 2 2 2 2 3 2 1 1 1 1 2 1 2 1 1 2 1 1 3
5 4 5 5 3 3 2 2 2 2 2 2 2 3 3 3 3 3 2 2 2 2 2 2 2 2 2 2 2 2 2 1 1 1 1 1 2 2 2 1 1 1 1
6 4 5 5 3 3 2 2 2 2 1 1 2 2 2 2 3 2 2 2 2 2 2 3 2 2 1 2 1 2 2 3 3 2 1 1 1 1 1 1 1 1 1
6 5 4 5 4 3 3 2 2 2 1 2 2 1 1 2 2 2 2 2 1 1 1 1 1 1 1 2 1 1 1 1 2 2 1 1 1 1 1 1 1 1 1
5 5 4 4 4 4 3 2 2 2 1 1 1 0 1 2 2 2 2 2 1 1 1 0 1 0 0 1 2 1 1 0 0 2 2 1 1 1 1 1 1 1 1
4 4 4 4 4 4 4 3 2 1 1 1 1 1 0 1 1 1 1 2 2 1 1 1 1 1 0 0 1 1 1 1 1 1 2 2 2 2 1 1 0 0 0
4 4 4 4 4 4 3 3 3 2 2 2 1 1 0 0 1 1 1 1 1 1 1 1 1 1 1 1 1 1 1 1 1 1 1 2 2 2 1 1 0 0 0
Wind_Direction
80 83 69 61 58 57 57 56 59 58 58 59 59 59 63 65 66 67 67 69 71 70 69 68 64 63 63 62 60 57 53 48 48 50 53 55 59 60 61 59 59 64 64
90 87 74 64 61 60 57 58 61 61 60 59 59 62 63 63 64 66 68 68 69 71 69 67 64 62 60 59 57 54 50 45 44 45 49 52 58 60 61 62 62 61 61
89 90 78 64 62 61 61 61 61 61 62 60 58 60 61 61 62 64 66 67 69 71 69 65 63 62 61 58 54 49 44 38 36 36 32 47 62 62 63 63 60 60 60
90 86 78 68 65 64 65 63 60 60 61 60 58 59 60 60 62 64 66 70 72 73 71 66 64 61 58 56 49 43 38 33 28 25 32 43 52 65 63 61 58 58 57
87 89 84 75 69 67 67 64 61 61 61 60 58 58 61 63 64 65 65 70 74 73 71 68 65 62 60 54 45 39 33 30 30 31 43 44 46 66 67 63 60 59 57
91 94 93 83 78 70 68 67 65 63 63 62 60 60 63 66 67 68 68 69 72 72 70 67 65 63 60 52 42 34 29 31 29 39 49 42 46 69 73 67 62 60 62
96 99 101 93 87 78 72 70 68 67 66 64 62 60 63 67 68 69 70 69 70 70 68 65 63 61 56 49 39 29 21 20 40 48 52 42 52 70 72 67 63 61 63
96 102 109 106 98 89 82 77 71 69 68 67 65 63 67 70 71 71 71 70 68 66 66 64 61 59 53 46 38 28 21 23 44 54 59 50 56 64 65 63 63 62 63
95 103 111 117 107 102 94 87 81 77 73 71 71 71 71 76 78 75 74 71 68 66 66 64 58 53 49 43 32 27 29 33 31 39 60 53 57 61 61 60 60 63 64
93 98 108 115 115 112 104 94 86 85 80 78 80 78 81 83 82 76 73 71 69 66 65 62 55 47 43 38 22 14 28 34 54 55 58 58 60 60 60 58 56 58 60
96 93 96 105 110 103 102 101 100 100 96 93 102 112 107 92 87 78 76 76 73 71 67 63 54 48 41 36 2 344 10 67 81 69 56 60 64 64 61 59 55 55 56
104 95 96 98 99 94 86 101 116 106 118 112 79 99 83 66 72 78 85 83 74 67 70 63 43 33 357 24 360 355 37 68 78 77 65 66 67 67 64 60 55 53 55
110 97 76 75 83 90 89 89 69 68 84 78 59 67 73 72 81 82 92 87 74 63 55 64 6 346 9 28 28 37 41 55 71 76 71 71 70 68 65 62 58 55 54
99 93 85 77 80 86 88 85 82 73 55 56 49 58 65 59 68 70 70 64 56 32 17 18 9 13 21 23 30 37 45 54 76 86 83 80 75 69 64 62 60 58 57
100 94 87 81 76 82 88 83 85 78 75 59 43 55 73 69 68 67 59 53 39 30 21 20 22 18 20 17 26 36 35 49 69 81 87 84 82 74 66 65 61 58 61
111 105 91 93 86 77 77 77 81 81 83 71 46 44 59 59 64 66 55 48 42 29 19 34 32 29 24 20 22 36 35 40 59 74 95 87 82 81 73 71 64 57 57
121 111 97 90 85 85 85 80 83 79 77 72 47 48 60 56 59 63 61 50 45 29 26 33 28 32 32 27 23 28 35 29 36 61 74 100 95 82 82 76 70 61 55
118 113 110 99 90 86 80 73 77 74 69 66 48 36 44 48 60 53 51 43 44 44 35 29 32 31 30 23 9 9 30 23 16 33 59 73 81 82 76 78 77 68 59
114 114 113 99 93 90 85 81 75 75 67 63 55 39 37 39 52 53 43 31 38 40 34 33 34 19 24 11 351 10 16 17 9 19 48 57 62 85 89 90 85 74 64
118 117 116 106 97 98 89 85 78 76 69 62 58 41 31 36 50 55 44 40 42 46 31 38 32 18 16 354 352 7 348 339 28 41 49 58 55 65 92 81 96 88 82
123 122 119 121 114 102 91 84 86 74 67 61 54 58 37 25 36 55 39 44 40 47 41 43 29 15 4 6 5 347 337 356 52 44 27 36 51 43 56 59 61 56 96
145 149 141 138 132 120 103 91 94 93 82 90 63 57 43 28 28 45 46 46 41 47 43 42 38 10 0 10 6 356 357 344 354 2 22 35 27 28 28 25 36 46 85
155 162 153 144 138 127 116 101 93 93 68 55 58 41 9 35 44 29 37 42 39 58 66 45 41 32 359 333 360 50 30 315 317 326 344 4 3 4 351 345 31 24 52
154 157 156 150 145 135 126 115 112 114 120 150 124 105 355 25 37 33 34 20 26 51 71 26 48 5 59 323 320 331 272 242 271 309 315 319 322 325 314 338 2 29 40
147 154 156 149 137 132 134 142 147 141 159 153 138 134 92 21 33 20 40 21 3 11 35 6 1 348 12 267 292 298 312 313 286 222 293 315 324 302 292 297 286 25 19
129 136 145 144 140 141 147 157 163 168 182 169 147 129 115 49 5 13 30 16 342 348 348 325 291 296 286 285 290 291 274 289 297 296 277 293 296 289 284 285 288 147 260